Location: Czu?�w
(50.1404°N, 18.9919°E)
Time: 13:36:07
(UTC+00:00)

Cosmos 2297 Rocket - Pass Details

Date: 27 October 2020
Orbit: 838 x 845 km, 71.0° (Epoch: 28 November)

Event Time Altitude Azimuth Distance (km) Brightness Sun altitude
Rises 16:17:08 0° 331° (NNW) 3,416 5.6 -8.3°
Reaches altitude 10° 16:19:38 10° 335° (NNW) 2,477 4.8 -8.7°
Maximum altitude 16:25:17 63° 57° (ENE) 944 2.2 -9.6°
Drops below altitude 10° 16:30:53 10° 138° (SE) 2,461 4.3 -10.5°
Sets 16:33:21 0° 142° (SE) 3,391 5.0 -10.9°
